Location: Demre
(36.2444°N, 29.9850°E)
Time: 10:54:43
(UTC+00:00)

SL-24 DEB - Pass Details

Date: 11 March 2026
Orbit: 633 x 657 km, 92.0° (Epoch: 11 April)

Event Time Altitude Azimuth Distance (km) Brightness Sun altitude
Rises 17:10:31 0° 9° (N) 2,977 7.5 -14.3°
Reaches altitude 10° 17:12:47 10° 12° (NNE) 2,066 6.7 -14.7°
Maximum altitude 17:17:17 61° 94° (E) 742 4.1 -15.6°
Drops below altitude 10° 17:21:46 10° 174° (S) 2,060 6.6 -16.5°
Sets 17:24:00 0° 178° (S) 2,968 7.5 -17.0°
